sat.trackr.live / text

‹ back to catalog

STARLINK-34004

NORAD 63941 · 2025-098R

PAYLOAD ACTIVE UNKNOWN

§ Identity

Operator
Country
US
Launch date
2025-05-13
Launch site
AFWTR
Launch vehicle
Mass (kg)
RCS (m²)

Purposes: comms

External: N2YO · Heavens-Above · Gunter

§ Orbital elements

Epoch: 2026-09-20T18:33:39.621600Z

Period
94.14 min
Inclination
69.9997°
Eccentricity
0.0003234
Mean motion
15.29576607 rev/d
Perigee alt
474.9 km
Apogee alt
479.3 km
Semi-major
6,855.2 km
B*
3.7745e-4
RAAN
140.2022°
Arg perigee
263.4105°
Mean anomaly
96.6702°
Rev number
7,583

§ Raw data

STARLINK-340041 63941U 25098R   26263.77337525  .00010737  00000+0  37745-3 0  99912 63941  69.9997 140.2022 0003234 263.4105  96.6702 15.29576607 75839

JSON: /api/v1/satellites/63941 · /tle

For live sub-satellite position, see the globe view (requires WebGL).

§ Visibility from observer

Set your observer location to see the next 7 days of passes ≥ 10°. The values pass through the URL so the page stays shareable.

No JS? Fill the form by hand. The geolocation button needs JavaScript.